.
WxDataArchive / Data Records for 2011-02-24
2011-02-23 February 2011 2011-02-25

Data Records for Thursday, 24 February 2011

Time	Temp	Chill	HIndex	Humid	Dewpt	 Wind 	HiWind	WindDir	Rain 	Barom 
-----	----	-----	------	-----	-----	------	------	-------	-----	----- 
00:00	28.4	28.4	28.4	92	26.4	0	1	90	0.00	30.113 
00:05	28.5	28.5	28.5	92	26.5	1	3	90	0.00	30.113 
00:10	28.5	28.5	28.5	92	26.5	0	3	90	0.00	30.113 
00:15	28.7	28.7	28.7	92	26.7	1	3	90	0.00	30.087 
00:20	28.7	28.7	28.7	92	26.7	1	3	90	0.00	30.087 
00:25	28.7	28.7	28.7	92	26.7	1	3	90	0.00	30.087 
00:30	28.8	28.8	28.8	92	26.8	0	1	90	0.00	30.097 
00:35	28.8	28.8	28.8	92	26.8	0	1	90	0.00	30.097 
00:40	29.0	29.0	29.0	92	27.0	0	2	90	0.00	30.097 
00:45	29.0	29.0	29.0	92	27.0	0	1	90	0.00	30.098 
00:50	29.0	29.0	29.0	92	27.0	0	1	90	0.00	30.098 
00:55	29.0	29.0	29.0	92	27.0	0	2	90	0.00	30.098 
01:00	29.1	29.1	29.1	92	27.1	0	2	90	0.00	30.096 
01:05	29.1	29.1	29.1	92	27.1	1	4	90	0.00	30.096 
01:10	29.1	29.1	29.1	91	26.8	1	2	90	0.00	30.096 
01:15	29.1	29.1	29.1	91	26.8	2	4	90	0.00	30.081 
01:20	29.3	29.3	29.3	91	27.0	1	4	112	0.00	30.081 
01:25	29.3	29.3	29.3	91	27.0	2	6	112	0.00	30.081 
01:30	29.4	29.4	29.4	91	27.1	2	3	112	0.00	30.074 
01:35	29.5	29.5	29.5	91	27.2	1	4	112	0.00	30.074 
01:40	29.5	29.5	29.5	91	27.2	2	4	112	0.00	30.074 
01:45	29.5	29.5	29.5	91	27.2	1	3	90	0.00	30.068 
01:50	29.5	29.5	29.5	91	27.2	2	3	90	0.00	30.068 
01:55	29.5	29.5	29.5	92	27.5	0	3	90	0.00	30.068 
02:00	29.4	29.4	29.4	92	27.4	1	4	90	0.00	30.068 
02:05	29.4	29.4	29.4	92	27.4	1	4	90	0.00	30.068 
02:10	29.4	29.4	29.4	92	27.4	1	3	90	0.00	30.068 
02:15	29.4	29.4	29.4	92	27.4	1	3	90	0.00	30.069 
02:20	29.4	29.4	29.4	92	27.4	0	2	90	0.00	30.069 
02:25	29.4	29.4	29.4	92	27.4	1	3	90	0.00	30.069 
02:30	29.5	29.5	29.5	92	27.5	1	3	90	0.00	30.066 
02:35	29.5	29.5	29.5	92	27.5	0	1	90	0.00	30.066 
02:40	29.5	29.5	29.5	92	27.5	0	3	90	0.00	30.066 
02:45	29.5	29.5	29.5	92	27.5	0	2	90	0.00	30.066 
02:50	29.5	29.5	29.5	92	27.5	0	2	90	0.00	30.066 
02:55	29.5	29.5	29.5	92	27.5	1	3	90	0.00	30.066 
03:00	29.7	29.7	29.7	92	27.7	0	1	90	0.00	30.060 
03:05	29.7	29.7	29.7	92	27.7	0	2	90	0.00	30.060 
03:10	29.7	29.7	29.7	92	27.7	1	3	90	0.00	30.060 
03:15	29.7	29.7	29.7	92	27.7	1	3	90	0.00	30.049 
03:20	29.7	29.7	29.7	92	27.7	0	1	90	0.00	30.049 
03:25	29.7	29.7	29.7	92	27.7	0	2	90	0.00	30.049 
03:30	29.7	29.7	29.7	92	27.7	1	2	90	0.00	30.048 
03:35	29.7	29.7	29.7	92	27.7	0	2	90	0.00	30.048 
03:40	29.8	29.8	29.8	92	27.8	0	0	---	0.00	30.048 
03:45	29.8	29.8	29.8	92	27.8	1	2	90	0.00	30.045 
03:50	29.8	29.8	29.8	93	28.0	0	1	90	0.00	30.045 
03:55	29.8	29.8	29.8	93	28.0	0	0	---	0.00	30.045 
04:00	29.8	29.8	29.8	93	28.0	0	0	---	0.00	30.042 
04:05	29.8	29.8	29.8	93	28.0	0	1	90	0.00	30.042 
04:10	29.8	29.8	29.8	93	28.0	0	2	90	0.00	30.042 
04:15	29.8	29.8	29.8	93	28.0	0	1	90	0.00	30.033 
04:20	29.8	29.8	29.8	93	28.0	0	2	90	0.00	30.033 
04:25	29.8	29.8	29.8	93	28.0	0	1	90	0.00	30.033 
04:30	30.0	30.0	30.0	93	28.2	0	1	90	0.00	30.033 
04:35	30.0	30.0	30.0	93	28.2	0	1	90	0.00	30.033 
04:40	30.0	30.0	30.0	93	28.2	0	0	---	0.00	30.033 
04:45	30.0	30.0	30.0	93	28.2	0	0	---	0.00	30.032 
04:50	30.1	30.1	30.1	93	28.3	1	3	90	0.00	30.032 
04:55	30.1	30.1	30.1	93	28.3	0	0	---	0.00	30.032 
05:00	30.1	30.1	30.1	93	28.3	0	1	90	0.00	30.035 
05:05	30.1	30.1	30.1	93	28.3	0	0	---	0.00	30.035 
05:10	30.1	30.1	30.1	93	28.3	0	0	---	0.00	30.035 
05:15	30.1	30.1	30.1	93	28.3	0	0	---	0.00	30.040 
05:20	30.1	30.1	30.1	93	28.3	0	0	---	0.00	30.040 
05:25	30.3	30.3	30.3	93	28.5	0	0	---	0.00	30.040 
05:30	30.3	30.3	30.3	93	28.5	0	1	90	0.00	30.039 
05:35	30.3	30.3	30.3	93	28.5	0	1	90	0.00	30.039 
05:40	30.3	30.3	30.3	93	28.5	0	0	---	0.00	30.039 
05:45	30.3	30.3	30.3	93	28.5	0	0	---	0.00	30.047 
05:50	30.4	30.4	30.4	93	28.6	0	0	---	0.00	30.047 
05:55	30.4	30.4	30.4	93	28.6	0	1	90	0.00	30.047 
06:00	30.4	30.4	30.4	93	28.6	0	0	---	0.00	30.040 
06:05	30.4	30.4	30.4	93	28.6	0	0	---	0.00	30.040 
06:10	30.4	30.4	30.4	93	28.6	0	0	---	0.00	30.040 
06:15	30.4	30.4	30.4	93	28.6	0	0	---	0.00	30.042 
06:20	30.4	30.4	30.4	93	28.6	0	0	---	0.00	30.042 
06:25	30.4	30.4	30.4	93	28.6	0	0	---	0.00	30.042 
06:30	30.4	30.4	30.4	93	28.6	0	0	---	0.00	30.046 
06:35	30.4	30.4	30.4	93	28.6	0	0	---	0.00	30.046 
06:40	30.4	30.4	30.4	93	28.6	0	0	---	0.00	30.046 
06:45	30.6	30.6	30.6	93	28.8	0	0	---	0.00	30.047 
06:50	30.6	30.6	30.6	93	28.8	0	0	---	0.00	30.047 
06:55	30.6	30.6	30.6	93	28.8	0	0	---	0.00	30.047 
07:00	30.6	30.6	30.6	93	28.8	0	0	---	0.00	30.053 
07:05	30.6	30.6	30.6	94	29.1	0	0	---	0.00	30.053 
07:10	30.6	30.6	30.6	94	29.1	0	0	---	0.00	30.053 
07:15	30.7	30.7	30.7	94	29.2	0	0	---	0.00	30.061 
07:20	30.7	30.7	30.7	94	29.2	0	0	---	0.00	30.061 
07:25	30.7	30.7	30.7	94	29.2	0	0	---	0.00	30.061 
07:30	30.7	30.7	30.7	94	29.2	0	0	---	0.00	30.048 
07:35	30.7	30.7	30.7	94	29.2	0	0	---	0.00	30.048 
07:40	30.9	30.9	30.9	94	29.4	0	0	---	0.00	30.048 
07:45	30.9	30.9	30.9	94	29.4	0	0	---	0.00	30.046 
07:50	30.9	30.9	30.9	94	29.4	0	0	---	0.00	30.046 
07:55	31.0	31.0	31.0	94	29.5	0	0	---	0.00	30.046 
08:00	31.0	31.0	31.0	94	29.5	0	0	---	0.00	30.058 
08:05	31.2	31.2	31.2	94	29.7	0	0	---	0.00	30.058 
08:10	31.2	31.2	31.2	94	29.7	0	0	---	0.00	30.058 
08:15	31.2	31.2	31.2	94	29.7	0	0	---	0.00	30.061 
08:20	31.3	31.3	31.3	94	29.8	0	0	---	0.00	30.061 
08:25	31.5	31.5	31.5	94	30.0	0	0	---	0.00	30.061 
08:30	31.5	31.5	31.5	94	30.0	0	0	---	0.00	30.073 
08:35	31.6	31.6	31.6	94	30.1	0	0	---	0.00	30.073 
08:40	31.6	31.6	31.6	94	30.1	0	0	---	0.00	30.073 
08:45	31.8	31.8	31.8	94	30.3	0	0	---	0.00	30.075 
08:50	31.9	31.9	31.9	94	30.4	0	0	---	0.00	30.075 
08:55	32.1	32.1	32.1	94	30.6	0	0	---	0.00	30.075 
09:00	32.2	32.2	32.2	94	30.7	0	0	---	0.00	30.078 
09:05	32.4	32.4	32.4	94	30.9	0	0	---	0.00	30.078 
09:10	32.4	32.4	32.4	94	30.9	0	0	---	0.00	30.078 
09:15	32.5	32.5	32.5	94	31.0	0	1	90	0.00	30.084 
09:20	32.7	32.7	32.7	94	31.2	0	1	90	0.00	30.084 
09:25	32.8	32.8	32.8	94	31.3	0	1	90	0.00	30.084 
09:30	32.8	32.8	32.8	94	31.3	0	1	90	0.00	30.091 
09:35	32.9	32.9	32.9	94	31.4	0	1	90	0.00	30.091 
09:40	33.1	33.1	33.1	94	31.6	0	1	90	0.00	30.091 
09:45	33.1	33.1	33.1	94	31.6	0	1	90	0.00	30.096 
09:50	33.2	33.2	33.2	94	31.7	0	1	90	0.00	30.096 
09:55	33.4	33.4	33.4	93	31.6	0	3	90	0.00	30.096 
10:00	33.5	33.5	33.5	93	31.7	0	1	90	0.00	30.099 
10:05	33.7	33.7	33.7	93	31.9	0	3	90	0.00	30.099 
10:10	33.7	33.7	33.7	93	31.9	1	3	292	0.00	30.099 
10:15	33.8	33.8	33.8	93	32.0	1	2	292	0.00	30.095 
10:20	34.0	34.0	34.0	93	32.2	0	3	292	0.00	30.095 
10:25	34.0	34.0	34.0	93	32.2	1	3	292	0.00	30.095 
10:30	34.1	34.1	34.1	93	32.3	0	2	338	0.00	30.097 
10:35	34.3	34.3	34.3	93	32.5	0	2	338	0.00	30.097 
10:40	34.4	34.4	34.4	92	32.3	0	2	338	0.00	30.097 
10:45	34.6	34.6	34.6	92	32.5	0	1	338	0.00	30.090 
10:50	34.9	34.9	34.9	92	32.8	0	2	338	0.00	30.090 
10:55	35.0	35.0	35.0	92	32.9	0	2	338	0.00	30.090 
11:00	35.0	35.0	35.0	92	32.9	0	4	338	0.00	30.081 
11:05	35.0	35.0	35.0	92	32.9	1	3	0	0.00	30.081 
11:10	34.9	34.9	34.9	91	32.5	1	4	22	0.00	30.081 
11:15	35.0	35.0	35.0	91	32.6	1	3	68	0.00	30.082 
11:20	35.0	35.0	35.0	91	32.6	0	2	68	0.00	30.082 
11:25	35.2	35.2	35.2	91	32.8	0	2	315	0.00	30.082 
11:30	35.2	35.2	35.2	90	32.6	0	1	315	0.00	30.086 
11:35	35.3	35.3	35.3	90	32.7	0	2	315	0.00	30.086 
11:40	35.3	35.3	35.3	90	32.7	0	1	315	0.00	30.086 
11:45	35.3	35.3	35.3	89	32.4	0	2	315	0.00	30.089 
11:50	35.3	35.3	35.3	89	32.4	0	2	338	0.00	30.089 
11:55	35.3	35.3	35.3	89	32.4	1	3	45	0.00	30.089 
12:00	35.3	35.3	35.3	88	32.1	1	5	22	0.00	30.065 
12:05	35.5	35.5	35.5	88	32.3	1	4	22	0.00	30.065 
12:10	35.9	35.9	35.9	88	32.7	0	2	22	0.00	30.065 
12:15	35.9	35.9	35.9	87	32.4	1	3	0	0.00	30.055 
12:20	36.0	36.0	36.0	87	32.5	1	5	292	0.00	30.055 
12:25	36.0	36.0	36.0	87	32.5	0	1	135	0.00	30.055 
12:30	36.0	36.0	36.0	86	32.2	1	5	45	0.00	30.062 
12:35	35.9	35.9	35.9	86	32.1	1	7	90	0.00	30.062 
12:40	36.0	36.0	36.0	86	32.2	1	5	112	0.00	30.062 
12:45	36.0	36.0	36.0	85	31.9	1	4	112	0.00	30.060 
12:50	36.0	36.0	36.0	85	31.9	1	3	112	0.00	30.060 
12:55	36.0	36.0	36.0	86	32.2	0	3	45	0.00	30.060 
13:00	36.2	36.2	36.2	85	32.1	1	3	45	0.00	30.058 
13:05	36.0	36.0	36.0	85	31.9	1	4	135	0.01	30.058 
13:10	35.9	35.9	35.9	85	31.8	1	3	135	0.00	30.058 
13:15	35.9	35.9	35.9	85	31.8	1	3	45	0.00	30.050 
13:20	36.0	36.0	36.0	85	31.9	0	3	45	0.00	30.050 
13:25	36.0	36.0	36.0	85	31.9	1	3	112	0.01	30.050 
13:30	35.9	35.9	35.9	84	31.5	1	5	112	0.00	30.056 
13:35	35.9	35.9	35.9	85	31.8	0	3	112	0.00	30.056 
13:40	35.8	35.8	35.8	84	31.4	1	4	112	0.00	30.056 
13:45	35.8	35.8	35.8	84	31.4	1	2	0	0.01	30.055 
13:50	35.9	35.9	35.9	85	31.8	0	2	45	0.00	30.055 
13:55	36.0	36.0	36.0	84	31.6	0	3	45	0.00	30.055 
14:00	36.2	36.2	36.2	84	31.8	0	3	45	0.01	30.048 
14:05	36.2	36.2	36.2	84	31.8	0	2	45	0.00	30.048 
14:10	36.0	36.0	36.0	84	31.6	0	1	45	0.00	30.048 
14:15	35.9	35.9	35.9	84	31.5	0	1	45	0.00	30.040 
14:20	35.9	35.9	35.9	84	31.5	0	2	68	0.00	30.040 
14:25	35.9	35.9	35.9	84	31.5	0	1	68	0.01	30.040 
14:30	36.0	36.0	36.0	84	31.6	0	3	68	0.00	30.038 
14:35	36.0	36.0	36.0	84	31.6	0	1	68	0.00	30.038 
14:40	36.0	36.0	36.0	83	31.3	0	2	68	0.00	30.038 
14:45	36.2	36.2	36.2	83	31.5	0	2	68	0.01	30.036 
14:50	36.0	36.0	36.0	83	31.3	0	2	68	0.00	30.036 
14:55	36.0	36.0	36.0	83	31.3	0	3	68	0.00	30.036 
15:00	36.0	36.0	36.0	82	31.0	1	3	135	0.00	30.037 
15:05	36.2	36.2	36.2	82	31.2	1	2	135	0.00	30.037 
15:10	36.2	36.2	36.2	82	31.2	0	2	135	0.00	30.037 
15:15	36.2	36.2	36.2	82	31.2	0	2	135	0.00	30.034 
15:20	36.0	36.0	36.0	82	31.0	1	3	135	0.00	30.034 
15:25	35.9	35.9	35.9	82	31.0	0	3	45	0.01	30.034 
15:30	35.8	35.8	35.8	82	30.9	1	3	90	0.00	30.025 
15:35	35.8	35.8	35.8	82	30.9	0	3	90	0.00	30.025 
15:40	35.6	35.6	35.6	82	30.7	1	3	112	0.00	30.025 
15:45	35.6	35.6	35.6	83	31.0	1	6	112	0.00	30.005 
15:50	35.5	35.5	35.5	83	30.9	0	3	112	0.00	30.005 
15:55	35.3	35.3	35.3	83	30.7	1	3	45	0.00	30.005 
16:00	35.3	35.3	35.3	83	30.7	1	3	45	0.00	30.011 
16:05	35.3	35.3	35.3	84	31.0	1	3	90	0.00	30.011 
16:10	35.3	35.3	35.3	84	31.0	2	4	90	0.00	30.011 
16:15	35.3	35.3	35.3	84	31.0	1	4	112	0.00	30.003 
16:20	35.3	35.3	35.3	84	31.0	1	3	112	0.00	30.003 
16:25	35.2	35.2	35.2	84	30.9	1	3	112	0.01	30.003 
16:30	35.2	35.2	35.2	84	30.9	1	2	112	0.00	30.004 
16:35	35.0	35.0	35.0	84	30.7	1	3	112	0.00	30.004 
16:40	35.0	35.0	35.0	84	30.7	0	3	112	0.00	30.004 
16:45	34.9	34.9	34.9	85	30.9	1	5	112	0.00	29.972 
16:50	34.9	34.9	34.9	85	30.9	1	4	90	0.00	29.972 
16:55	34.7	34.7	34.7	85	30.7	1	4	22	0.00	29.972 
17:00	34.7	34.7	34.7	85	30.7	0	2	90	0.00	29.993 
17:05	34.7	34.7	34.7	85	30.7	0	4	112	0.00	29.993 
17:10	34.7	34.7	34.7	85	30.7	0	3	45	0.00	29.993 
17:15	34.7	34.7	34.7	85	30.7	1	3	45	0.00	29.996 
17:20	34.6	34.6	34.6	85	30.6	1	3	158	0.00	29.996 
17:25	34.6	34.6	34.6	85	30.6	0	2	22	0.00	29.996 
17:30	34.6	34.6	34.6	85	30.6	1	3	22	0.00	30.015 
17:35	34.6	34.6	34.6	85	30.6	0	2	22	0.00	30.015 
17:40	34.6	34.6	34.6	86	30.9	0	2	22	0.00	30.015 
17:45	34.4	34.4	34.4	86	30.7	1	3	68	0.00	30.006 
17:50	34.4	34.4	34.4	87	30.9	0	3	68	0.00	30.006 
17:55	34.3	34.3	34.3	87	30.8	1	3	68	0.00	30.006 
18:00	34.3	34.3	34.3	87	30.8	0	3	68	0.00	30.008 
18:05	34.1	34.1	34.1	87	30.6	1	3	68	0.00	30.008 
18:10	34.1	34.1	34.1	88	30.9	0	1	68	0.00	30.008 
18:15	34.0	34.0	34.0	88	30.8	0	3	68	0.00	30.014 
18:20	34.0	34.0	34.0	88	30.8	1	3	68	0.00	30.014 
18:25	34.0	34.0	34.0	88	30.8	1	3	112	0.00	30.014 
18:30	33.8	33.8	33.8	88	30.6	1	3	90	0.00	30.006 
18:35	33.8	33.8	33.8	88	30.6	1	3	90	0.00	30.006 
18:40	33.8	33.8	33.8	88	30.6	1	5	135	0.00	30.006 
18:45	33.7	33.7	33.7	88	30.5	1	4	45	0.00	29.994 
18:50	33.7	33.7	33.7	88	30.5	1	4	45	0.00	29.994 
18:55	33.5	33.5	33.5	87	30.1	1	4	112	0.00	29.994 
19:00	33.5	33.5	33.5	87	30.1	1	3	112	0.00	29.999 
19:05	33.5	33.5	33.5	87	30.1	1	4	112	0.00	29.999 
19:10	33.4	33.4	33.4	86	29.7	1	5	68	0.00	29.999 
19:15	33.4	33.4	33.4	86	29.7	1	4	68	0.00	29.993 
19:20	33.4	33.4	33.4	86	29.7	1	3	45	0.00	29.993 
19:25	33.4	33.4	33.4	86	29.7	1	4	68	0.00	29.993 
19:30	33.4	33.4	33.4	85	29.4	1	3	90	0.00	29.989 
19:35	33.2	33.2	33.2	85	29.2	1	4	68	0.00	29.989 
19:40	33.2	33.2	33.2	85	29.2	1	3	90	0.00	29.989 
19:45	33.2	33.2	33.2	84	28.9	1	4	90	0.00	29.987 
19:50	33.2	33.2	33.2	84	28.9	0	3	45	0.00	29.987 
19:55	33.2	33.2	33.2	84	28.9	0	3	90	0.00	29.987 
20:00	33.2	33.2	33.2	84	28.9	0	4	112	0.00	29.975 
20:05	33.2	33.2	33.2	84	28.9	1	4	112	0.00	29.975 
20:10	33.1	33.1	33.1	85	29.1	1	3	90	0.00	29.975 
20:15	33.1	33.1	33.1	85	29.1	1	4	90	0.00	29.959 
20:20	33.1	33.1	33.1	85	29.1	1	4	45	0.00	29.959 
20:25	33.1	33.1	33.1	85	29.1	1	3	22	0.00	29.959 
20:30	33.1	33.1	33.1	85	29.1	3	7	112	0.00	29.940 
20:35	33.1	33.1	33.1	85	29.1	1	4	112	0.00	29.940 
20:40	32.9	32.9	32.9	85	28.9	2	5	90	0.00	29.940 
20:45	32.9	32.9	32.9	85	28.9	1	5	112	0.00	29.928 
20:50	32.9	32.9	32.9	85	28.9	1	4	112	0.00	29.928 
20:55	32.9	32.9	32.9	85	28.9	2	7	112	0.00	29.928 
21:00	32.9	32.9	32.9	85	28.9	2	5	68	0.00	29.914 
21:05	32.9	32.9	32.9	85	28.9	2	5	112	0.00	29.914 
21:10	32.9	32.9	32.9	85	28.9	2	5	112	0.00	29.914 
21:15	32.9	32.9	32.9	85	28.9	1	4	135	0.00	29.917 
21:20	32.9	32.9	32.9	85	28.9	1	6	112	0.00	29.917 
21:25	32.9	32.9	32.9	85	28.9	1	4	112	0.00	29.917 
21:30	32.9	32.9	32.9	84	28.6	1	3	112	0.00	29.941 
21:35	32.9	32.9	32.9	84	28.6	1	4	112	0.00	29.941 
21:40	32.9	32.9	32.9	84	28.6	2	4	112	0.00	29.941 
21:45	32.9	32.9	32.9	84	28.6	0	2	112	0.00	29.947 
21:50	32.9	32.9	32.9	84	28.6	0	4	112	0.00	29.947 
21:55	32.9	32.9	32.9	84	28.6	1	2	22	0.00	29.947 
22:00	32.9	32.9	32.9	84	28.6	1	6	90	0.00	29.927 
22:05	32.9	32.9	32.9	84	28.6	2	7	90	0.00	29.927 
22:10	32.9	32.9	32.9	84	28.6	2	10	112	0.00	29.927 
22:15	32.9	32.9	32.9	84	28.6	2	11	90	0.00	29.909 
22:20	32.9	32.9	32.9	84	28.6	2	10	90	0.00	29.909 
22:25	32.9	29.1	32.9	84	28.6	4	9	112	0.00	29.909 
22:30	32.9	32.9	32.9	84	28.6	3	8	90	0.00	29.885 
22:35	32.8	32.8	32.8	85	28.8	2	6	112	0.00	29.885 
22:40	32.8	32.8	32.8	85	28.8	3	11	90	0.00	29.885 
22:45	32.8	32.8	32.8	86	29.1	3	10	112	0.00	29.863 
22:50	32.7	32.7	32.7	86	29.0	3	9	112	0.00	29.863 
22:55	32.7	32.7	32.7	86	29.0	3	9	112	0.00	29.863 
23:00	32.7	32.7	32.7	87	29.3	3	11	90	0.00	29.851 
23:05	32.7	27.9	32.7	87	29.3	5	11	112	0.00	29.851 
23:10	32.7	28.9	32.7	87	29.3	4	11	90	0.00	29.851 
23:15	32.5	32.5	32.5	87	29.1	3	12	90	0.00	29.844 
23:20	32.5	32.5	32.5	87	29.1	3	13	90	0.00	29.844 
23:25	32.4	27.5	32.4	86	28.7	5	13	90	0.00	29.844 
23:30	32.2	27.3	32.2	85	28.2	5	12	90	0.00	29.833 
23:35	32.2	28.3	32.2	85	28.2	4	11	112	0.00	29.833 
23:40	32.2	28.3	32.2	84	27.9	4	18	90	0.00	29.833 
23:45	32.1	26.3	32.1	83	27.5	6	16	112	0.00	29.840 
23:50	32.1	26.3	32.1	83	27.5	6	15	90	0.00	29.840 
23:55	32.1	28.2	32.1	83	27.5	4	10	90	0.00	29.840 

CoCoRaHS
IN-AL-39
A2 Web Hosting
Creative Commons License
GoDaddy
search engine by freefind advanced

loaded 2018-11-20 06:15:56 • last modified 2010-11-18 10:43:29
Privacy PolicyDisclaimer
• wx.awcolley.com is powered by PmWiki v.2002016 •
• all content (unless otherwise noted) © 2018 A W Colley